User: anonymous   Login
Location: Wildcat Hills Observatory
(41.6350°N, 103.6812°W)
Time: 14:26:56
(UTC-06:00)
Language:

Cosmos 2315 Rocket - Orbit

View from above orbital plane
View from above orbital plane
View from above satellite
View from above satellite

Ground track
Ground track

The orbit data is extracted from the following two-line orbital elements,

1 23604U 95032B   18288.78490164 -.00000010  00000-0 -25883-4 0  9993
2 23604  82.9039 155.3236 0023788 329.8122 102.3776 13.74294737167724
Epoch (UTC): 15 October 2018 18:50:15
Eccentricity: 0.0023788
inclination: 82.9039°
perigee height: 966 km
apogee height: 1002 km
right ascension of ascending node: 155.3236°
argument of perigee: 329.8122°
revolutions per day: 13.74294737
mean anomaly at epoch: 102.3776°
orbit number at epoch: 16772

The dashed part of the orbit path shows where the satellite is in the earth's shadow,  

DLR